period_start,C,m1,H,J0,J1,J2,J3,J4,J5,JA,JB,JC,JD,JJ,JK,JN,#
2014-05-27 00:02:30,0.01,0.19,0.00,22.42,26.80,29.30,9.54,40.38,1017.10,2040.99,3443.01,3269.00,3556.54,499.97,497.88,12.01,0000 0000 0000 0000 000000
2014-05-27 00:07:31,0.00,0.19,0.00,22.42,26.80,29.29,9.66,40.53,1017.10,2040.99,3442.93,3269.00,3556.04,500.00,497.89,12.05,0000 0000 0000 0000 000000
2014-05-27 00:12:32,0.02,0.19,0.00,22.42,26.80,29.27,9.64,40.27,1017.11,2040.99,3442.22,3268.84,3556.00,499.94,497.85,12.09,0000 0000 0000 0000 000000
2014-05-27 00:17:33,0.03,0.19,0.00,22.44,26.80,29.27,9.55,40.34,1017.13,2040.99,3442.00,3268.25,3555.71,500.18,497.99,12.13,0000 0000 0000 0000 000000
2014-05-27 00:22:34,0.02,0.20,0.00,22.44,26.80,29.25,9.58,40.48,1017.14,2040.99,3441.46,3268.01,3555.06,499.61,497.38,12.17,0000 0000 0000 0000 000000
2014-05-27 00:27:35,0.00,0.20,0.00,22.43,26.79,29.25,9.63,40.28,1017.19,2040.99,3441.01,3267.98,3555.00,500.50,498.39,12.22,0000 0000 0000 0000 000000
2014-05-27 00:32:36,0.02,0.20,0.00,22.42,26.78,29.25,9.62,40.27,1017.20,2041.00,3440.81,3267.78,3554.72,499.90,497.92,12.26,0000 0000 0000 0000 000000
2014-05-27 00:37:37,0.04,0.20,0.00,22.42,26.77,29.26,9.59,40.27,1017.19,2041.00,3440.07,3267.10,3554.06,499.65,497.51,12.30,0000 0000 0000 0000 000000
2014-05-27 00:42:38,0.00,0.20,0.00,22.41,26.77,29.26,9.61,40.33,1017.13,2041.00,3439.95,3267.00,3553.99,500.04,497.76,12.34,0000 0000 0000 0000 000000
2014-05-27 00:47:39,0.03,0.20,0.00,22.40,26.77,29.27,9.59,40.25,1017.14,2041.00,3439.18,3266.89,3553.43,500.11,498.12,12.38,0000 0000 0000 0000 000000
2014-05-27 00:52:41,0.03,0.20,0.00,22.38,26.77,29.27,9.63,40.28,1017.14,2041.01,3438.86,3266.13,3553.01,500.47,498.28,12.43,0000 0000 0000 0000 000000
2014-05-27 00:57:42,0.01,0.20,0.00,22.37,26.77,29.26,9.66,40.41,1017.15,2041.02,3438.14,3266.00,3552.94,500.02,497.99,12.47,0000 0000 0000 0000 000000
2014-05-27 01:02:43,0.01,0.20,0.00,22.38,26.77,29.28,9.60,40.08,1017.20,2041.00,3437.97,3265.95,3552.14,499.98,498.24,12.51,0000 0000 0000 0000 000000
2014-05-27 01:07:44,0.04,0.20,0.00,22.37,26.77,29.27,9.60,40.12,1017.31,2041.02,3437.27,3265.42,3552.00,500.20,498.32,12.55,0000 0000 0000 0000 000000
2014-05-27 01:12:45,0.01,0.21,0.00,22.37,26.77,29.27,9.61,40.42,1017.34,2041.02,3436.98,3265.03,3551.65,500.20,498.20,12.59,0000 0000 0000 0000 000000
2014-05-27 01:17:46,0.02,0.21,0.00,22.39,26.77,29.28,9.57,40.35,1017.23,2041.01,3436.42,3264.99,3551.06,499.60,497.68,12.63,0000 0000 0000 0000 000000
2014-05-27 01:22:47,0.02,0.21,0.00,22.38,26.76,29.27,9.63,40.32,1017.22,2041.01,3436.00,3264.65,3550.95,500.34,498.42,12.68,0000 0000 0000 0000 000000
2014-05-27 01:27:49,0.04,0.21,0.00,22.36,26.76,29.26,9.58,40.27,1017.28,2041.03,3435.47,3264.05,3550.23,499.61,497.76,12.72,0000 0000 0000 0000 000000
2014-05-27 01:32:50,0.01,0.21,0.00,22.34,26.75,29.28,9.61,40.53,1017.28,2041.03,3434.84,3263.95,3549.88,500.11,498.34,12.76,0000 0000 0000 0000 000000
2014-05-27 01:37:51,0.05,0.21,0.00,22.33,26.75,29.27,9.74,40.55,1017.22,2041.01,3434.05,3263.31,3549.14,500.74,498.66,12.80,0000 0000 0000 0000 000000
2014-05-27 01:42:52,0.02,0.21,0.00,22.35,26.75,29.33,9.66,40.46,1017.23,2041.02,3433.38,3263.00,3548.84,500.25,498.18,12.84,0000 0000 0000 0000 000000
2014-05-27 01:47:54,0.02,0.21,0.00,22.35,26.75,29.29,9.58,40.57,1017.19,2041.02,3432.94,3262.77,3548.06,500.18,498.20,12.89,0000 0000 0000 0000 000000
2014-05-27 01:52:55,0.04,0.22,0.00,22.33,26.75,29.29,9.58,40.27,1017.18,2041.02,3432.16,3262.06,3547.75,499.75,497.79,12.93,0000 0000 0000 0000 000000
2014-05-27 01:57:56,0.01,0.22,0.00,22.33,26.75,29.28,9.64,40.51,1017.16,2041.01,3431.92,3262.00,3547.08,500.35,498.45,12.97,0000 0000 0000 0000 000000
2014-05-27 02:02:57,0.02,0.22,0.00,22.34,26.75,29.30,9.62,40.43,1017.27,2041.02,3431.24,3261.86,3546.99,500.17,498.28,13.01,0000 0000 0000 0000 000000
2014-05-27 02:07:58,0.03,0.22,0.00,22.33,26.75,29.30,9.65,40.35,1017.38,2041.04,3430.96,3261.16,3546.55,500.26,498.45,13.05,0000 0000 0000 0000 000000
2014-05-27 02:12:59,0.02,0.22,0.00,22.34,26.75,29.33,9.64,40.31,1017.37,2041.05,3430.33,3261.00,3546.02,500.03,498.31,13.09,0000 0000 0000 0000 000000
2014-05-27 02:18:00,-0.00,0.22,0.00,22.32,26.75,29.36,9.65,40.41,1017.31,2041.02,3429.99,3260.98,3545.98,500.07,498.18,13.14,0000 0000 0000 0000 000000
2014-05-27 02:23:02,0.05,0.22,0.00,22.33,26.75,29.27,9.62,40.24,1017.49,2041.06,3429.44,3260.51,3545.45,499.78,497.85,13.18,0000 0000 0000 0000 000000
2014-05-27 02:28:03,0.01,0.22,0.00,22.33,26.75,29.34,9.65,40.36,1017.47,2041.05,3428.94,3260.02,3544.99,499.97,498.26,13.22,0000 0000 0000 0000 000000
2014-05-27 02:33:04,0.03,0.22,0.00,22.34,26.74,29.36,9.62,40.37,1017.34,2041.03,3428.15,3259.96,3544.56,500.15,498.41,13.26,0000 0000 0000 0000 000000
2014-05-27 02:38:05,0.02,0.22,0.00,22.35,26.74,29.41,9.60,40.33,1017.31,2041.03,3427.98,3259.42,3544.02,499.83,497.95,13.30,0000 0000 0000 0000 000000
2014-05-27 02:43:07,0.02,0.23,0.00,22.34,26.74,29.42,9.58,40.30,1017.26,2041.07,3427.27,3259.02,3543.91,499.75,498.00,13.35,0000 0000 0000 0000 000000
2014-05-27 02:48:08,0.02,0.23,0.00,22.33,26.74,29.43,9.58,40.11,1017.28,2041.08,3426.85,3258.92,3543.13,499.69,497.93,13.39,0000 0000 0000 0000 000000
2014-05-27 02:53:09,0.03,0.23,0.00,22.32,26.74,29.39,9.60,40.37,1017.42,2041.07,3426.11,3258.22,3542.92,499.80,497.96,13.43,0000 0000 0000 0000 000000
2014-05-27 02:58:11,0.01,0.23,0.00,22.32,26.74,29.40,9.63,40.38,1017.42,2041.06,3425.89,3258.00,3542.15,499.85,498.04,13.47,0000 0000 0000 0000 000000
2014-05-27 03:03:12,0.02,0.23,0.00,22.31,26.74,29.42,9.72,40.23,1017.43,2041.08,3425.15,3257.97,3542.00,500.31,498.58,13.51,0000 0000 0000 0000 000000
2014-05-27 03:08:13,0.02,0.23,0.00,22.29,26.74,29.46,9.61,40.28,1017.44,2041.08,3424.98,3257.43,3541.82,499.83,497.94,13.55,0000 0000 0000 0000 000000
2014-05-27 03:13:15,0.04,0.23,0.00,22.32,26.74,29.46,9.66,40.27,1017.41,2041.10,3424.28,3257.02,3541.15,500.23,498.51,13.60,0000 0000 0000 0000 000000
2014-05-27 03:18:16,0.00,0.23,0.00,22.32,26.74,29.43,9.59,40.23,1017.20,2041.10,3423.99,3256.98,3540.99,499.90,498.07,13.64,0000 0000 0000 0000 000000
2014-05-27 03:23:17,0.04,0.23,0.00,22.32,26.74,29.43,9.64,40.35,1017.17,2041.13,3423.51,3256.70,3540.59,500.00,498.16,13.68,0000 0000 0000 0000 000000
2014-05-27 03:28:18,0.03,0.24,0.00,22.31,26.74,29.45,9.62,40.34,1017.17,2041.17,3422.95,3256.04,3540.02,499.78,497.93,13.72,0000 0000 0000 0000 000000
2014-05-27 03:33:19,0.01,0.24,0.00,22.30,26.75,29.48,9.66,40.53,1017.22,2041.13,3422.17,3255.99,3539.75,500.27,498.38,13.76,0000 0000 0000 0000 000000
2014-05-27 03:38:20,0.03,0.24,0.00,22.34,26.75,29.49,9.53,40.46,1017.31,2041.06,3421.80,3255.35,3539.05,499.55,497.79,13.81,0000 0000 0000 0000 000000
2014-05-27 03:43:22,0.02,0.24,0.00,22.33,26.75,29.43,9.60,40.33,1017.24,2041.05,3421.05,3255.01,3538.79,500.11,498.28,13.85,0000 0000 0000 0000 000000
2014-05-27 03:48:22,0.02,0.24,0.00,22.32,26.75,29.47,9.63,40.34,1017.25,2041.10,3420.80,3254.93,3538.09,499.63,497.88,13.89,0000 0000 0000 0000 000000
2014-05-27 03:53:23,0.03,0.24,0.00,22.33,26.75,29.43,9.68,40.46,1017.25,2041.09,3420.06,3254.28,3537.96,500.06,498.19,13.93,0000 0000 0000 0000 000000
2014-05-27 03:58:25,0.03,0.24,0.00,22.31,26.75,29.48,9.53,40.41,1017.12,2041.08,3419.53,3254.00,3537.20,499.52,497.67,13.97,0000 0000 0000 0000 000000
2014-05-27 04:03:26,0.01,0.24,0.00,22.29,26.75,29.46,9.56,40.38,1017.11,2041.06,3419.00,3253.91,3536.99,499.75,497.92,14.01,0000 0000 0000 0000 000000
2014-05-27 04:08:27,0.06,0.25,0.00,22.30,26.75,29.48,9.63,40.35,1017.13,2041.12,3418.42,3253.17,3536.52,499.83,498.05,14.06,0000 0000 0000 0000 000000
2014-05-27 04:13:28,0.01,0.25,0.00,22.31,26.75,29.51,9.65,40.52,1017.11,2041.14,3417.99,3253.00,3536.01,500.50,498.50,14.10,0000 0000 0000 0000 000000
2014-05-27 04:18:29,0.02,0.25,0.00,22.31,26.75,29.46,9.58,40.41,1017.12,2041.14,3417.33,3252.83,3535.72,499.58,497.68,14.14,0000 0000 0000 0000 000000
2014-05-27 04:23:30,0.05,0.25,0.00,22.31,26.75,29.45,9.57,40.43,1017.12,2041.22,3416.99,3252.13,3535.07,499.44,497.71,14.18,0000 0000 0000 0000 000000
2014-05-27 04:28:31,0.00,0.25,0.00,22.30,26.75,29.46,9.60,40.25,1017.12,2041.18,3416.43,3252.00,3534.94,499.94,498.05,14.22,0000 0000 0000 0000 000000
2014-05-27 04:33:32,0.04,0.25,0.00,22.30,26.75,29.50,9.66,40.38,1017.12,2041.29,3415.93,3251.82,3534.34,500.16,498.33,14.27,0000 0000 0000 0000 000000
2014-05-27 04:38:33,0.03,0.25,0.00,22.31,26.75,29.51,9.64,40.46,1017.12,2041.23,3415.14,3251.07,3533.84,499.42,497.49,14.31,0000 0000 0000 0000 000000
2014-05-27 04:43:34,0.05,0.25,0.00,22.33,26.75,29.52,9.64,40.33,1017.12,2041.30,3414.38,3250.96,3533.10,500.16,498.24,14.35,0000 0000 0000 0000 000000
2014-05-27 04:48:35,0.03,0.26,0.00,22.34,26.75,29.47,9.62,40.36,1017.11,2041.22,3413.71,3250.18,3532.63,500.15,498.10,14.39,0000 0000 0000 0000 000000
2014-05-27 04:53:36,0.01,0.26,0.00,22.34,26.75,29.50,9.61,40.42,1017.11,2041.15,3412.99,3249.88,3532.01,499.59,497.50,14.43,0000 0000 0000 0000 000000
2014-05-27 04:58:38,0.05,0.26,0.00,22.32,26.75,29.53,9.68,40.58,1017.11,2041.11,3412.14,3249.11,3531.26,500.00,497.82,14.47,0000 0000 0000 0000 000000
2014-05-27 05:03:39,0.02,0.26,0.00,22.33,26.75,29.50,9.60,40.40,1017.12,2041.14,3411.56,3248.97,3530.87,499.95,498.03,14.52,0000 0000 0000 0000 000000
2014-05-27 05:08:40,0.05,0.26,0.00,22.33,26.75,29.50,9.62,40.36,1017.12,2041.21,3410.92,3248.39,3530.11,499.91,498.08,14.56,0000 0000 0000 0000 000000
2014-05-27 05:13:41,0.01,0.26,0.00,22.33,26.75,29.56,9.62,40.32,1017.11,2041.12,3410.08,3248.00,3529.68,500.48,498.55,14.60,0000 0000 0000 0000 000000
2014-05-27 05:18:42,0.04,0.27,0.00,22.34,26.75,29.54,9.65,40.25,1017.10,2041.19,3409.45,3247.64,3529.03,500.30,498.38,14.64,0000 0000 0000 0000 000000
2014-05-27 05:23:43,0.02,0.27,0.00,22.30,26.75,29.54,9.63,40.20,1017.08,2041.18,3408.83,3247.03,3528.52,500.07,498.13,14.68,0000 0000 0000 0000 000000
2014-05-27 05:28:44,0.02,0.27,0.00,22.31,26.75,29.53,9.62,40.31,1016.99,2041.15,3408.08,3246.86,3528.01,500.21,498.17,14.73,0000 0000 0000 0000 000000
2014-05-27 05:33:45,0.04,0.27,0.00,22.32,26.75,29.57,9.67,40.49,1016.96,2041.07,3407.49,3246.11,3527.49,500.21,498.20,14.77,0000 0000 0000 0000 000000
2014-05-27 05:38:47,0.01,0.27,0.00,22.32,26.75,29.53,9.65,40.19,1016.93,2041.13,3406.95,3245.95,3526.99,500.22,497.94,14.81,0000 0000 0000 0000 000000
2014-05-27 05:43:48,0.05,0.27,0.00,22.34,26.75,29.56,9.63,40.49,1017.04,2041.06,3406.16,3245.33,3526.37,499.72,497.83,14.85,0000 0000 0000 0000 000000
2014-05-27 05:48:49,0.02,0.27,0.00,22.34,26.75,29.58,9.66,40.30,1017.04,2041.03,3405.43,3245.00,3525.94,500.15,498.16,14.89,0000 0000 0000 0000 000000
2014-05-27 05:53:50,0.04,0.28,0.00,22.33,26.75,29.59,9.62,40.35,1017.06,2041.09,3404.91,3244.61,3525.18,499.85,497.87,14.93,0000 0000 0000 0000 000000
2014-05-27 05:58:50,0.02,0.28,0.00,22.30,26.75,29.57,9.64,40.34,1017.09,2041.06,3404.09,3244.02,3524.93,500.12,498.24,14.98,0000 0000 0000 0000 000000
2014-05-27 06:03:52,0.03,0.28,0.00,22.32,26.75,29.59,9.69,40.20,1017.09,2041.06,3403.52,3243.89,3524.13,500.29,498.24,15.02,0000 0000 0000 0000 000000
2014-05-27 06:08:53,0.03,0.28,0.00,22.33,26.75,29.58,9.68,40.35,1017.10,2041.09,3402.99,3243.14,3523.87,500.35,498.30,15.06,0000 0000 0000 0000 000000
2014-05-27 06:13:54,0.03,0.28,0.00,22.32,26.75,29.63,9.71,40.41,1017.10,2041.09,3402.20,3242.99,3523.10,500.36,498.30,15.10,0000 0000 0000 0000 000000
2014-05-27 06:18:55,0.04,0.28,0.00,22.34,26.76,29.60,9.62,40.40,1017.09,2041.04,3401.63,3242.32,3522.78,499.73,497.93,15.14,0000 0000 0000 0000 000000
2014-05-27 06:23:56,0.02,0.28,0.00,22.33,26.76,29.60,9.61,40.43,1017.05,2041.07,3401.02,3242.01,3522.07,499.37,497.53,15.19,0000 0000 0000 0000 000000
2014-05-27 06:28:58,0.02,0.28,0.00,22.32,26.76,29.61,9.65,40.46,1017.10,2041.06,3400.50,3241.90,3521.91,500.13,498.24,15.23,0000 0000 0000 0000 000000
2014-05-27 06:33:59,0.05,0.29,0.00,22.32,26.76,29.66,9.59,40.59,1017.11,2041.06,3399.82,3241.15,3521.13,499.79,497.87,15.27,0000 0000 0000 0000 000000
2014-05-27 06:39:00,0.02,0.29,0.00,22.31,26.76,29.63,9.57,40.28,1017.12,2041.02,3399.04,3240.90,3520.61,499.91,498.06,15.31,0000 0000 0000 0000 000000
2014-05-27 06:44:01,0.04,0.29,0.00,22.30,26.76,29.63,9.69,40.56,1017.12,2041.04,3398.38,3240.22,3520.02,500.03,498.12,15.35,0000 0000 0000 0000 000000
2014-05-27 06:49:02,0.01,0.29,0.00,22.32,26.76,29.62,9.59,40.33,1017.12,2041.04,3397.88,3239.99,3519.70,499.90,498.07,15.39,0000 0000 0000 0000 000000
2014-05-27 06:54:04,0.04,0.29,0.00,22.35,26.76,29.63,9.56,40.54,1017.13,2041.02,3397.09,3239.62,3519.02,499.92,497.95,15.44,0000 0000 0000 0000 000000
2014-05-27 06:59:05,0.03,0.29,0.00,22.37,26.76,29.64,9.62,40.45,1017.15,2041.04,3396.59,3239.03,3518.72,499.71,497.77,15.48,0000 0000 0000 0000 000000
2014-05-27 07:04:06,0.01,0.30,0.00,22.37,26.76,29.64,9.68,40.44,1017.16,2041.03,3395.97,3238.92,3518.04,500.00,498.06,15.52,0000 0000 0000 0000 000000
2014-05-27 07:09:07,0.05,0.30,0.00,22.38,26.76,29.65,9.60,40.59,1017.13,2041.06,3395.14,3238.16,3517.80,500.12,498.18,15.56,0000 0000 0000 0000 000000
2014-05-27 07:14:08,0.01,0.30,0.00,22.38,26.76,29.67,9.66,40.40,1017.15,2041.04,3394.74,3237.99,3517.12,500.35,498.34,15.60,0000 0000 0000 0000 000000
2014-05-27 07:19:10,0.04,0.30,0.00,22.37,26.77,29.68,9.66,40.52,1017.29,2041.03,3394.00,3237.54,3516.68,500.47,498.46,15.65,0000 0000 0000 0000 000000
2014-05-27 07:24:11,0.03,0.30,0.00,22.37,26.77,29.67,9.60,40.55,1017.37,2041.02,3393.28,3237.00,3516.02,499.89,498.00,15.69,0000 0000 0000 0000 000000
2014-05-27 07:29:12,0.02,0.30,0.00,22.38,26.77,29.67,9.67,40.55,1017.52,2041.01,3392.90,3236.76,3515.61,500.32,498.58,15.73,0000 0000 0000 0000 000000
2014-05-27 07:34:13,0.03,0.30,0.00,22.39,26.77,29.67,9.65,40.63,1017.58,2041.01,3392.14,3236.09,3515.02,500.31,498.39,15.77,0000 0000 0000 0000 000000
2014-05-27 07:39:14,0.03,0.30,0.00,22.38,26.77,29.65,9.62,40.40,1017.59,2041.02,3391.56,3235.98,3514.55,499.84,498.22,15.81,0000 0000 0000 0000 000000
2014-05-27 07:44:16,0.03,0.31,0.00,22.37,26.77,29.65,9.62,40.41,1017.58,2041.04,3391.00,3235.54,3514.01,500.05,498.35,15.85,0000 0000 0000 0000 000000
2014-05-27 07:49:17,0.03,0.31,0.00,22.37,26.77,29.68,9.63,40.50,1017.59,2041.01,3390.35,3235.01,3513.46,499.89,498.20,15.90,0000 0000 0000 0000 000000
2014-05-27 07:54:18,0.04,0.31,0.00,22.37,26.77,29.67,9.66,40.36,1017.59,2041.02,3389.68,3234.52,3512.97,499.62,497.99,15.94,0000 0000 0000 0000 000000
2014-05-27 07:59:18,0.02,0.31,0.00,22.37,26.77,29.71,9.63,40.57,1017.59,2041.00,3389.00,3234.01,3512.21,499.93,498.27,15.98,0000 0000 0000 0000 000000
2014-05-27 08:04:19,0.02,0.31,0.00,22.37,26.77,29.70,9.66,40.38,1017.59,2041.00,3388.33,3233.81,3511.98,500.07,498.27,16.02,0000 0000 0000 0000 000000
2014-05-27 08:09:20,0.04,0.31,0.00,22.37,26.77,29.68,9.64,40.27,1017.59,2041.00,3387.95,3233.13,3511.26,500.04,498.22,16.06,0000 0000 0000 0000 000000
2014-05-27 08:14:21,0.02,0.31,0.00,22.37,26.77,29.68,9.66,40.33,1017.60,2041.01,3387.18,3233.00,3510.99,500.09,498.33,16.11,0000 0000 0000 0000 000000
2014-05-27 08:19:22,0.04,0.32,0.00,22.39,26.77,29.71,9.66,40.38,1017.59,2041.00,3386.72,3232.55,3510.30,500.10,498.55,16.15,0000 0000 0000 0000 000000
2014-05-27 08:24:23,0.01,0.32,0.00,22.40,26.77,29.71,9.69,40.18,1017.61,2041.00,3386.04,3232.02,3509.96,500.42,498.56,16.19,0000 0000 0000 0000 000000
2014-05-27 08:29:24,0.04,0.32,0.00,22.39,26.77,29.69,9.58,40.25,1017.61,2041.00,3385.36,3231.82,3509.27,499.52,497.99,16.23,0000 0000 0000 0000 000000
2014-05-27 08:34:26,0.02,0.32,0.00,22.38,26.77,29.73,9.64,40.27,1017.60,2041.00,3384.95,3231.11,3508.99,499.93,498.23,16.27,0000 0000 0000 0000 000000
2014-05-27 08:39:27,0.03,0.32,0.00,22.42,26.77,29.71,9.66,40.23,1017.60,2041.00,3384.22,3231.00,3508.48,499.99,498.23,16.31,0000 0000 0000 0000 000000
2014-05-27 08:44:28,0.02,0.32,0.00,22.42,26.77,29.76,9.67,40.36,1017.65,2041.00,3383.98,3230.70,3508.01,500.02,498.19,16.36,0000 0000 0000 0000 000000
2014-05-27 08:49:28,0.03,0.32,0.00,22.42,26.77,29.74,9.63,40.38,1017.66,2041.00,3383.27,3230.08,3507.87,499.94,498.17,16.40,0000 0000 0000 0000 000000
2014-05-27 08:54:30,0.01,0.32,0.00,22.42,26.77,29.71,9.63,40.35,1017.64,2041.00,3383.00,3230.00,3507.15,499.85,498.03,16.44,0000 0000 0000 0000 000000
2014-05-27 08:59:31,0.03,0.33,0.00,22.40,26.77,29.74,9.66,40.28,1017.68,2041.00,3382.33,3229.67,3506.92,500.01,498.30,16.48,0000 0000 0000 0000 000000
2014-05-27 09:04:32,0.03,0.33,0.00,22.39,26.77,29.73,9.68,40.46,1017.87,2041.00,3381.85,3229.06,3506.26,500.00,498.42,16.52,0000 0000 0000 0000 000000
2014-05-27 09:09:33,0.01,0.33,0.00,22.39,26.77,29.76,9.64,40.49,1018.00,2041.00,3381.16,3228.99,3505.97,500.17,498.68,16.57,0000 0000 0000 0000 000000
2014-05-27 09:14:34,0.03,0.33,0.00,22.42,26.77,29.75,9.63,40.49,1018.05,2041.00,3380.90,3228.61,3505.38,500.22,498.58,16.61,0000 0000 0000 0000 000000
2014-05-27 09:19:35,0.03,0.33,0.00,22.46,26.77,29.73,9.62,40.39,1018.05,2041.00,3380.12,3228.03,3505.00,499.94,498.25,16.65,0000 0000 0000 0000 000000
2014-05-27 09:24:36,0.00,0.33,0.00,22.49,26.77,29.74,9.55,40.25,1018.07,2041.00,3379.98,3228.00,3504.93,499.61,498.07,16.69,0000 0000 0000 0000 000000
2014-05-27 09:29:37,0.03,0.33,0.00,22.48,26.77,29.74,9.61,40.23,1018.08,2041.00,3379.27,3227.83,3504.20,500.29,498.59,16.73,0000 0000 0000 0000 000000
2014-05-27 09:34:38,0.02,0.33,0.00,22.47,26.77,29.74,9.65,40.48,1018.08,2041.00,3378.98,3227.11,3503.99,500.04,498.20,16.77,0000 0000 0000 0000 000000
2014-05-27 09:39:39,0.03,0.33,0.00,22.49,26.78,29.76,9.61,40.33,1018.08,2041.00,3378.29,3227.00,3503.48,499.65,497.98,16.82,0000 0000 0000 0000 000000
2014-05-27 09:44:40,0.02,0.34,0.00,22.51,26.78,29.76,9.63,40.41,1018.09,2041.00,3377.99,3226.69,3503.01,499.93,498.32,16.86,0000 0000 0000 0000 000000
2014-05-27 09:49:41,0.04,0.34,0.00,22.49,26.78,29.77,9.65,40.41,1018.09,2041.00,3377.38,3226.07,3502.70,500.27,498.54,16.90,0000 0000 0000 0000 000000
2014-05-27 09:54:43,0.01,0.34,0.00,22.49,26.79,29.77,9.63,40.42,1018.12,2041.00,3376.96,3225.98,3502.02,500.43,498.68,16.94,0000 0000 0000 0000 000000
2014-05-27 09:59:43,0.03,0.34,0.00,22.50,26.79,29.79,9.68,40.33,1018.30,2041.00,3376.32,3225.73,3501.95,500.34,498.61,16.98,0000 0000 0000 0000 000000
2014-05-27 10:04:45,0.03,0.34,0.00,22.49,26.80,29.79,9.64,40.26,1018.31,2041.00,3375.98,3225.08,3501.25,500.21,498.49,17.03,0000 0000 0000 0000 000000
2014-05-27 10:09:46,0.02,0.34,0.00,22.49,26.80,29.77,9.65,40.27,1018.24,2041.00,3375.24,3224.96,3500.94,500.41,498.84,17.07,0000 0000 0000 0000 000000
2014-05-27 10:14:47,0.04,0.34,0.00,22.48,26.80,29.79,9.63,40.29,1018.42,2041.00,3374.94,3224.43,3500.26,499.80,498.21,17.11,0000 0000 0000 0000 000000
2014-05-27 10:19:48,0.02,0.34,0.00,22.48,26.80,29.79,9.67,40.46,1018.50,2040.99,3374.15,3224.01,3499.98,499.87,498.35,17.15,0000 0000 0000 0000 000000
2014-05-27 10:24:49,0.01,0.35,0.00,22.50,26.80,29.82,9.59,40.46,1018.56,2040.99,3373.93,3223.95,3499.56,499.77,498.41,17.19,0000 0000 0000 0000 000000
2014-05-27 10:29:50,0.04,0.35,0.00,22.52,26.80,29.84,9.62,40.31,1018.57,2040.99,3373.20,3223.31,3499.02,500.09,498.55,17.24,0000 0000 0000 0000 000000
2014-05-27 10:34:51,0.01,0.35,0.00,22.53,26.80,29.83,9.66,40.30,1018.57,2040.99,3372.82,3223.01,3498.73,500.04,498.52,17.28,0000 0000 0000 0000 000000
2014-05-27 10:39:52,0.03,0.35,0.00,22.53,26.80,29.84,9.68,40.33,1018.57,2040.98,3372.04,3222.77,3498.04,500.22,498.85,17.32,0000 0000 0000 0000 000000
2014-05-27 10:44:54,0.03,0.35,0.00,22.49,26.80,29.84,9.64,40.43,1018.57,2040.98,3371.80,3222.06,3497.92,500.10,498.57,17.36,0000 0000 0000 0000 000000
2014-05-27 10:49:55,0.02,0.35,0.00,22.51,26.80,29.85,9.64,40.42,1018.57,2040.97,3371.08,3222.00,3497.15,500.10,498.41,17.40,0000 0000 0000 0000 000000
2014-05-27 10:54:56,0.03,0.35,0.00,22.52,26.80,29.86,9.62,40.33,1018.57,2040.98,3370.70,3221.61,3496.96,499.89,498.15,17.44,0000 0000 0000 0000 000000
2014-05-27 10:59:58,0.03,0.35,0.00,22.48,26.80,29.86,9.61,40.25,1018.57,2040.98,3370.04,3221.04,3496.28,499.79,498.49,17.49,0000 0000 0000 0000 000000
2014-05-27 11:04:58,0.01,0.36,0.00,22.48,26.80,29.86,9.66,40.46,1018.57,2040.98,3369.60,3221.00,3496.00,500.02,498.54,17.53,0000 0000 0000 0000 000000
2014-05-27 11:09:59,0.03,0.36,0.00,22.48,26.80,29.86,9.63,40.45,1018.57,2040.99,3369.03,3220.61,3495.60,499.73,498.35,17.57,0000 0000 0000 0000 000000
2014-05-27 11:15:00,0.02,0.36,0.00,22.52,26.80,29.85,9.66,40.33,1018.57,2040.98,3368.65,3220.03,3495.02,500.02,498.33,17.61,0000 0000 0000 0000 000000
2014-05-27 11:20:01,0.00,0.36,0.00,22.57,26.80,29.83,9.60,40.33,1018.57,2040.98,3368.04,3219.99,3494.90,499.94,498.32,17.65,0000 0000 0000 0000 000000
2014-05-27 11:25:03,0.04,0.36,0.00,22.56,26.80,29.82,9.65,40.35,1018.57,2040.98,3367.60,3219.49,3494.09,499.68,498.09,17.70,0000 0000 0000 0000 000000
2014-05-27 11:30:04,0.01,0.36,0.00,22.50,26.80,29.84,9.62,40.49,1018.57,2040.98,3367.01,3219.02,3493.93,499.77,498.19,17.74,0000 0000 0000 0000 000000
2014-05-27 11:35:05,0.03,0.36,0.00,22.52,26.80,29.80,9.64,40.45,1018.58,2040.99,3366.50,3219.00,3493.34,500.18,498.65,17.78,0000 0000 0000 0000 000000
2014-05-27 11:40:06,0.02,0.36,0.00,22.57,26.80,29.79,9.64,40.51,1018.58,2040.99,3366.01,3218.60,3493.00,499.99,498.31,17.82,0000 0000 0000 0000 000000
2014-05-27 11:45:07,0.04,0.36,0.00,22.63,26.80,29.79,9.64,40.35,1018.59,2040.99,3365.44,3218.03,3492.65,499.83,498.20,17.86,0000 0000 0000 0000 000000
2014-05-27 11:50:08,0.01,0.37,0.00,22.71,26.80,29.76,9.63,40.52,1018.59,2040.99,3364.96,3217.90,3492.02,499.91,498.05,17.91,0000 0000 0000 0000 000000
2014-05-27 11:55:09,0.04,0.37,0.00,22.70,26.80,29.82,9.69,40.50,1018.57,2040.99,3364.27,3217.18,3491.78,500.05,498.23,17.95,0000 0000 0000 0000 000000
2014-05-27 12:00:10,0.01,0.37,0.00,22.61,26.80,29.84,9.57,40.47,1018.57,2040.99,3363.95,3217.00,3491.07,499.45,497.81,17.99,0000 0000 0000 0000 000000
2014-05-27 12:05:11,0.02,0.37,0.00,22.58,26.80,29.84,9.61,40.42,1018.57,2040.99,3363.15,3216.81,3490.87,500.15,498.55,18.03,0000 0000 0000 0000 000000
2014-05-27 12:10:12,0.04,0.37,0.00,22.55,26.79,29.81,9.63,40.42,1018.57,2040.99,3362.78,3216.07,3490.10,499.96,498.38,18.07,0000 0000 0000 0000 000000
2014-05-27 12:15:13,0.01,0.37,0.00,22.62,26.79,29.76,9.58,40.46,1018.57,2040.99,3362.05,3215.99,3489.99,499.87,498.02,18.11,0000 0000 0000 0000 000000
2014-05-27 12:20:15,0.03,0.37,0.00,22.81,26.79,29.76,9.56,40.48,1018.57,2040.99,3361.82,3215.64,3489.34,499.49,497.42,18.16,0000 0000 0000 0000 000000
2014-05-27 12:25:16,0.02,0.37,0.00,22.92,26.80,29.77,9.64,40.57,1018.58,2040.99,3361.05,3215.03,3488.99,500.18,498.13,18.20,0000 0000 0000 0000 000000
2014-05-27 12:30:17,0.03,0.38,0.00,22.80,26.79,29.81,9.61,40.36,1018.60,2040.99,3360.53,3214.90,3488.35,500.07,497.79,18.24,0000 0000 0000 0000 000000
2014-05-27 12:35:18,0.02,0.38,0.00,22.70,26.78,29.83,9.61,40.61,1018.58,2040.99,3360.00,3214.23,3488.00,499.88,498.04,18.28,0000 0000 0000 0000 000000
2014-05-27 12:40:19,0.03,0.38,0.00,22.78,26.78,29.83,9.61,40.45,1018.60,2040.99,3359.36,3214.00,3487.59,499.64,497.66,18.32,0000 0000 0000 0000 000000
2014-05-27 12:45:20,0.02,0.38,0.00,22.95,26.78,29.78,9.56,40.24,1018.58,2040.99,3358.96,3213.77,3487.01,499.56,497.20,18.37,0000 0000 0000 0000 000000
2014-05-27 12:50:21,0.05,0.38,0.00,22.95,26.78,29.79,9.53,40.29,1018.57,2040.99,3358.14,3213.06,3486.56,499.66,497.48,18.41,0000 0000 0000 0000 000000
2014-05-27 12:55:23,0.00,0.38,0.00,22.85,26.77,29.81,9.70,40.47,1018.57,2040.99,3357.88,3212.99,3486.01,500.43,498.29,18.45,0000 0000 0000 0000 000000
2014-05-27 13:00:24,0.05,0.38,0.00,22.87,26.77,29.80,9.55,40.39,1018.57,2040.99,3357.11,3212.50,3485.71,499.72,497.58,18.49,0000 0000 0000 0000 000000